When you browse on this site, cookies collect data to enhance your experience and personalize the content and advertising you see.
Visit our Privacy Policy to learn more. By continuing to use the site, you agree to this use of cookies and data.
  • In Hungary
  • List of Countries
  • For 7 days
  • Water Temperature
  • Satellite Maps
  • Weather Map
  • News
  • Weather Widgets
  • user-avatar
    Login

    Hourly Weather Tylewice

    Today, 18 January, Friday

    Time Temperature Precipitation Wind Pressure Humidity
    00:00 0°C° 0 mm 7 mps 742 mmHg 75%
    01:00 +1°C° 0 mm 6 mps 742 mmHg 78%
    02:00 -1°C° 0 mm 6 mps 743 mmHg 77%
    03:00 -1°C° 0 mm 6 mps 744 mmHg 76%
    04:00 -1°C° 0 mm 6 mps 744 mmHg 75%
    05:00 -1°C° 0 mm 6 mps 745 mmHg 77%
    06:00 -2°C° 0 mm 6 mps 746 mmHg 78%
    07:00 -2°C° 0 mm 6 mps 747 mmHg 79%
    08:00 -2°C° 0.1 mm 6 mps 748 mmHg 78%
    09:00 -3°C° 0.1 mm 6 mps 749 mmHg 76%
    10:00 -3°C° 0.1 mm 6 mps 750 mmHg 74%
    11:00 -3°C° 0 mm 6 mps 751 mmHg 70%
    12:00 -2°C° 0 mm 6 mps 752 mmHg 67%
    13:00 -1°C° 0 mm 5 mps 753 mmHg 65%
    14:00 -2°C° 0 mm 4 mps 753 mmHg 67%
    15:00 -1°C° 0 mm 3 mps 754 mmHg 69%
    16:00 -2°C° 0 mm 3 mps 754 mmHg 71%
    17:00 -2°C° 0 mm 3 mps 754 mmHg 74%
    18:00 -2°C° 0 mm 3 mps 754 mmHg 77%
    19:00 -4°C° 0 mm 3 mps 755 mmHg 80%
    20:00 -2°C° 0 mm 3 mps 755 mmHg 79%
    21:00 -2°C° 0 mm 3 mps 755 mmHg 77%
    22:00 -2°C° 0 mm 3 mps 756 mmHg 76%
    23:00 -2°C° 0 mm 3 mps 756 mmHg 76%

    Tomorrow, 19 January, Saturday

    Time Temperature Precipitation Wind Pressure Humidity
    00:00 -2°C° 0 mm 3 mps 756 mmHg 76%
    01:00 -2°C° 0 mm 3 mps 756 mmHg 77%
    02:00 -2°C° 0 mm 3 mps 756 mmHg 79%
    03:00 -2°C° 0 mm 3 mps 756 mmHg 81%
    04:00 -3°C° 0 mm 2 mps 756 mmHg 82%
    05:00 -3°C° 0 mm 2 mps 756 mmHg 83%
    06:00 -3°C° 0 mm 2 mps 756 mmHg 84%
    07:00 -3°C° 0 mm 2 mps 756 mmHg 85%
    08:00 -2°C° 0 mm 2 mps 756 mmHg 82%
    09:00 -2°C° 0 mm 2 mps 756 mmHg 79%
    10:00 +1°C° 0 mm 1 mps 757 mmHg 76%
    11:00 +1°C° 0 mm 1 mps 756 mmHg 73%
    12:00 +2°C° 0 mm 1 mps 756 mmHg 69%
    13:00 +3°C° 0 mm 1 mps 756 mmHg 65%
    14:00 +2°C° 0 mm 1 mps 756 mmHg 67%
    15:00 +2°C° 0 mm 1 mps 756 mmHg 70%
    16:00 +1°C° 0 mm 1 mps 755 mmHg 73%
    17:00 +1°C° 0 mm 1 mps 755 mmHg 74%
    18:00 0°C° 0 mm 1 mps 755 mmHg 76%
    19:00 0°C° 0 mm 1 mps 755 mmHg 78%
    20:00 -2°C° 0 mm 2 mps 755 mmHg 78%
    21:00 -2°C° 0 mm 2 mps 755 mmHg 78%
    22:00 -3°C° 0 mm 2 mps 755 mmHg 78%
    23:00 -3°C° 0 mm 2 mps 755 mmHg 76%

    Day after tomorrow, 20 January, Sunday

    Time Temperature Precipitation Wind Pressure Humidity
    00:00 -3°C° 0 mm 2 mps 755 mmHg 75%
    01:00 -3°C° 0 mm 2 mps 755 mmHg 74%
    02:00 -1°C° 0 mm 1 mps 754 mmHg 72%
    03:00 -1°C° 0 mm 1 mps 754 mmHg 71%
    04:00 -1°C° 0 mm 1 mps 754 mmHg 70%
    05:00 -2°C° 0 mm 1 mps 754 mmHg 69%
    06:00 -2°C° 0 mm 1 mps 754 mmHg 68%
    07:00 -2°C° 0 mm 1 mps 754 mmHg 68%
    08:00 -1°C° 0 mm 1 mps 754 mmHg 65%
    09:00 -1°C° 0 mm 1 mps 754 mmHg 62%
    10:00 0°C° 0 mm 1 mps 755 mmHg 59%
    11:00 0°C° 0 mm 1 mps 755 mmHg 56%
    12:00 +1°C° 0 mm 1 mps 755 mmHg 53%
    13:00 +2°C° 0 mm 1 mps 754 mmHg 50%
    14:00 +1°C° 0 mm 1 mps 755 mmHg 54%
    15:00 0°C° 0 mm 1 mps 755 mmHg 57%
    16:00 0°C° 0 mm 1 mps 755 mmHg 61%
    17:00 -1°C° 0 mm 1 mps 755 mmHg 64%
    18:00 -1°C° 0 mm 1 mps 755 mmHg 67%
    19:00 -1°C° 0 mm 1 mps 756 mmHg 70%
    20:00 -1°C° 0 mm 1 mps 756 mmHg 71%
    21:00 -2°C° 0 mm 1 mps 757 mmHg 72%
    22:00 -3°C° 0 mm 0 mps 757 mmHg 73%
    23:00 -3°C° 0 mm 0 mps 757 mmHg 73%

    21 January, Monday

    Time Temperature Precipitation Wind Pressure Humidity
    00:00 -2°C° 0 mm 1 mps 757 mmHg 74%
    01:00 -2°C° 0 mm 1 mps 758 mmHg 75%
    02:00 -2°C° 0 mm 1 mps 758 mmHg 76%
    03:00 -2°C° 0 mm 1 mps 758 mmHg 77%
    04:00 -2°C° 0 mm 1 mps 758 mmHg 77%
    05:00 -2°C° 0 mm 1 mps 758 mmHg 78%
    06:00 -2°C° 0 mm 1 mps 758 mmHg 79%
    07:00 -2°C° 0 mm 1 mps 758 mmHg 79%
    08:00 -2°C° 0 mm 1 mps 758 mmHg 76%
    09:00 -1°C° 0 mm 1 mps 759 mmHg 72%
    10:00 -1°C° 0 mm 1 mps 759 mmHg 69%
    11:00 -2°C° 0 mm 2 mps 759 mmHg 64%
    12:00 -1°C° 0 mm 2 mps 758 mmHg 59%
    13:00 +1°C° 0 mm 2 mps 758 mmHg 55%
    14:00 -1°C° 0 mm 2 mps 758 mmHg 56%
    15:00 -2°C° 0 mm 2 mps 757 mmHg 58%
    16:00 -2°C° 0 mm 2 mps 757 mmHg 59%
    17:00 -2°C° 0 mm 2 mps 757 mmHg 59%
    18:00 -3°C° 0 mm 2 mps 757 mmHg 59%
    19:00 -3°C° 0 mm 2 mps 757 mmHg 59%
    20:00 -3°C° 0 mm 2 mps 756 mmHg 59%
    21:00 -3°C° 0 mm 2 mps 756 mmHg 59%
    22:00 -4°C° 0 mm 2 mps 756 mmHg 58%
    23:00 -4°C° 0 mm 2 mps 755 mmHg 58%

    22 January, Tuesday

    Time Temperature Precipitation Wind Pressure Humidity
    00:00 -4°C° 0 mm 2 mps 755 mmHg 58%
    01:00 -5°C° 0 mm 3 mps 755 mmHg 58%
    02:00 -4°C° 0 mm 2 mps 754 mmHg 58%
    03:00 -4°C° 0 mm 2 mps 753 mmHg 58%
    04:00 -4°C° 0 mm 2 mps 753 mmHg 58%
    05:00 -5°C° 0 mm 2 mps 752 mmHg 58%
    06:00 -5°C° 0 mm 2 mps 752 mmHg 57%
    07:00 -5°C° 0 mm 2 mps 752 mmHg 57%
    08:00 -4°C° 0 mm 2 mps 751 mmHg 54%
    09:00 -4°C° 0 mm 2 mps 751 mmHg 50%
    10:00 -4°C° 0 mm 3 mps 751 mmHg 47%
    11:00 -2°C° 0 mm 3 mps 750 mmHg 44%
    12:00 -1°C° 0 mm 3 mps 749 mmHg 42%
    13:00 -1°C° 0 mm 3 mps 748 mmHg 39%
    14:00 -1°C° 0 mm 3 mps 748 mmHg 42%
    15:00 -2°C° 0 mm 3 mps 747 mmHg 45%
    16:00 -2°C° 0 mm 3 mps 746 mmHg 48%
    17:00 -2°C° 0 mm 3 mps 746 mmHg 51%
    18:00 -4°C° 0 mm 3 mps 745 mmHg 53%
    19:00 -4°C° 0 mm 4 mps 745 mmHg 56%
    20:00 -4°C° 0 mm 4 mps 745 mmHg 56%
    21:00 -4°C° 0 mm 4 mps 744 mmHg 57%
    22:00 -5°C° 0 mm 4 mps 744 mmHg 57%
    23:00 -5°C° 0 mm 4 mps 743 mmHg 60%

    23 January, Wednesday

    Time Temperature Precipitation Wind Pressure Humidity
    00:00 -5°C° 0 mm 4 mps 743 mmHg 62%
    01:00 -5°C° 0 mm 4 mps 743 mmHg 65%
    02:00 -5°C° 0 mm 3 mps 742 mmHg 67%
    03:00 -5°C° 0 mm 3 mps 741 mmHg 69%
    04:00 -6°C° 0 mm 3 mps 741 mmHg 72%
    05:00 -6°C° 0 mm 3 mps 741 mmHg 73%
    06:00 -6°C° 0 mm 3 mps 740 mmHg 74%
    07:00 -6°C° 0 mm 3 mps 740 mmHg 76%
    08:00 -5°C° 0 mm 3 mps 740 mmHg 74%
    09:00 -5°C° 0 mm 3 mps 740 mmHg 71%
    10:00 -4°C° 0 mm 3 mps 740 mmHg 69%
    11:00 -2°C° 0 mm 3 mps 739 mmHg 66%
    12:00 -2°C° 0 mm 3 mps 739 mmHg 64%
    13:00 -1°C° 0 mm 3 mps 739 mmHg 61%
    14:00 -1°C° 0 mm 3 mps 739 mmHg 64%
    15:00 -2°C° 0 mm 3 mps 739 mmHg 67%
    16:00 -2°C° 0 mm 3 mps 738 mmHg 69%
    17:00 -2°C° 0 mm 3 mps 738 mmHg 73%
    18:00 -4°C° 0 mm 3 mps 739 mmHg 77%
    19:00 -4°C° 0 mm 3 mps 739 mmHg 82%
    20:00 -4°C° 0 mm 3 mps 739 mmHg 84%
    21:00 -4°C° 0 mm 3 mps 739 mmHg 87%
    22:00 -4°C° 0 mm 3 mps 739 mmHg 89%
    23:00 -4°C° 0 mm 3 mps 739 mmHg 89%
    Show more